Location: Chateh
(58.6667°N, 118.6000°W)
Time: 15:55:11
(UTC+00:00)

DOVE 4 - Pass Details

Date: 09 December 2023
Orbit: 583 x 781 km, 97.8° (Epoch: 24 February)

Event Time Altitude Azimuth Distance (km) Brightness Sun altitude
Rises 15:28:55 0° 127° (SE) 3,075 ? -7.2°
Reaches altitude 10° 15:31:27 10° 117° (ESE) 2,126 ? -6.9°
Maximum altitude 15:35:24 29° 58° (ENE) 1,220 ? -6.5°
Drops below altitude 10° 15:39:11 10° 359° (N) 2,033 ? -6.1°
Sets 15:41:33 0° 349° (NNW) 2,916 ? -5.8°
